Regional Weather Roundup
Issued by NWS Goodland, KS

Home | Current Version | Previous Version | Text Only | Print | Product List | Glossary Off
Versions: 1 2 3 4 5 6 7 8 9 10 11 12 13 14 15 16 17 18 19 20 21 22 23 24 25 26 27 28 29 30 31 32 33 34 35 36 37 38 39 40 41 42 43 44 45 46 47 48 49 50

000
ASUS43 KGLD 211159
RWRGLD

GOODLAND FORECAST AREA HOURLY WEATHER ROUNDUP
NATIONAL WEATHER SERVICE GOODLAND KS
600 AM MDT TUE OCT 21 2014

...OFFICIAL OBSERVATIONS...

CITY           SKY/WX    TMP DP  RH WIND       PRES   REMARKS
GOODLAND KS    PTCLDY    49  47  93 S12       30.07S
HILL CITY KS   CLEAR     40  37  89 NW5       30.09S
IMPERIAL NEB   CLEAR     53  46  77 S6        30.03S
MCCOOK NEB     CLEAR     43  37  79 CALM      30.06S
AKRON CO       CLEAR     50  47  89 S10       30.02S
BURLINGTON CO  CLEAR     52  49  89 S13       30.06F
LIMON CO       CLEAR     36  36 100 N3        30.09S FOG
$$

...UNOFFICIAL OBSERVATIONS...

CITY           SKY/WX    TMP DP  RH WIND       PRES   REMARKS
COLBY KS       CLEAR     46  45  93 S5        30.08S
GOVE KS          N/A     40  32  73 MISG        N/A
NORTON KS      CLEAR     39  36  87 SW3       30.06S
SHARON SPRINGS   N/A     52  50  93 S5          N/A
TRENTON NEB      N/A     46  32  58 S6          N/A
KIT CARSON CO    N/A     41  38  89 CALM        N/A
YUMA CO          N/A     52  48  87 S12         N/A
$$


USA.gov is the U.S. government's official web portal to all federal, state and local government web resources and services.